TimeEST,TemperatureF,Dew PointF,Humidity,Sea Level PressureIn,VisibilityMPH,Wind Direction,Wind SpeedMPH,Gust SpeedMPH,PrecipitationIn,Events,Conditions,WindDirDegrees,DateUTC
12:57 AM,35.1,32.0,89,30.37,10.0,NW,3.5,-,N/A,,Clear,310,2014-01-01 05:57:00
1:57 AM,34.0,30.9,89,30.38,10.0,Calm,Calm,-,N/A,,Clear,0,2014-01-01 06:57:00
2:57 AM,33.1,30.0,89,30.40,10.0,Calm,Calm,-,N/A,,Clear,0,2014-01-01 07:57:00
3:57 AM,32.0,28.9,88,30.41,10.0,NW,3.5,-,N/A,,Clear,310,2014-01-01 08:57:00
4:57 AM,37.0,32.0,82,30.40,10.0,North,5.8,-,N/A,,Clear,350,2014-01-01 09:57:00
5:57 AM,37.0,30.0,76,30.40,10.0,North,5.8,-,N/A,,Clear,360,2014-01-01 10:57:00
6:57 AM,37.0,28.9,73,30.41,10.0,Calm,Calm,-,N/A,,Clear,0,2014-01-01 11:57:00
7:57 AM,39.9,28.9,65,30.43,10.0,NNE,4.6,-,N/A,,Clear,20,2014-01-01 12:57:00
8:57 AM,42.1,30.9,65,30.43,10.0,ENE,5.8,-,N/A,,Clear,60,2014-01-01 13:57:00
9:57 AM,45.0,33.1,63,30.45,10.0,NE,3.5,-,N/A,,Clear,50,2014-01-01 14:57:00
10:57 AM,46.9,32.0,56,30.44,10.0,Variable,4.6,-,N/A,,Clear,0,2014-01-01 15:57:00
11:57 AM,50.0,30.9,48,30.39,10.0,NNE,3.5,-,N/A,,Clear,30,2014-01-01 16:57:00
12:57 PM,53.1,28.9,40,30.35,10.0,ENE,3.5,-,N/A,,Clear,60,2014-01-01 17:57:00
1:57 PM,54.0,35.1,49,30.33,10.0,Variable,3.5,-,N/A,,Clear,0,2014-01-01 18:57:00
2:57 PM,54.0,37.0,53,30.31,10.0,NNE,5.8,-,N/A,,Overcast,20,2014-01-01 19:57:00
3:57 PM,53.1,37.9,57,30.29,10.0,North,5.8,-,N/A,,Mostly Cloudy,10,2014-01-01 20:57:00
4:57 PM,52.0,39.0,61,30.27,10.0,NNE,4.6,-,N/A,,Mostly Cloudy,30,2014-01-01 21:57:00
5:57 PM,50.0,39.0,66,30.28,10.0,North,5.8,-,0.00,Rain,Light Rain,10,2014-01-01 22:57:00
6:57 PM,48.9,37.9,66,30.26,10.0,NE,4.6,-,0.00,Rain,Light Rain,50,2014-01-01 23:57:00
7:57 PM,48.0,39.9,74,30.25,10.0,NE,3.5,-,0.00,Rain,Light Rain,50,2014-01-02 00:57:00
8:57 PM,48.0,41.0,77,30.25,10.0,Calm,Calm,-,0.00,,Overcast,0,2014-01-02 01:57:00
9:57 PM,46.9,42.1,83,30.22,10.0,Calm,Calm,-,0.00,,Overcast,0,2014-01-02 02:57:00
10:57 PM,46.9,42.1,83,30.19,10.0,Calm,Calm,-,0.00,Rain,Light Rain,0,2014-01-02 03:57:00
11:57 PM,46.0,43.0,89,30.17,7.0,NNW,4.6,-,0.01,Rain,Light Rain,330,2014-01-02 04:57:00